FW1492 Weather Reports


time (UTC)temp
F
wind
direction
speed
knots
gust
knots
rain 1hr
in
rain 24hr
in
rain mn
in
humidity
%
barometer
mb
20260508130027 44 323 1.7 6.1 0.00 0.06 0.06 85 1014.1
20260508124529 43 323 0.9 5.2 0.00 0.06 0.06 88 1014.3
20260508123028 42 316 0.9 3.5 0.00 0.06 0.06 89 1014.2
20260508121524 41 295 0.9 3.5 0.00 0.06 0.06 91 1014.2
20260508120026 40 327 0.9 4.3 0.00 0.06 0.06 93 1014.2
20260508114524 40 248 0.9 2.6 0.00 0.06 0.06 94 1014.3
20260508113022 39 326 0.9 4.3 0.00 0.06 0.06 94 1013.9
20260508111520 39 304 0.0 4.3 0.00 0.06 0.06 95 1013.9
20260508110030 39 321 0.0 1.7 0.00 0.06 0.06 94 1013.9
20260508104518 39 319 0.0 1.7 0.00 0.06 0.06 94 1013.7
20260508103035 39 319 0.0 2.6 0.00 0.06 0.06 94 1013.6
20260508101517 39 29 0.9 2.6 0.00 0.06 0.06 94 1013.4
20260508100014 39 316 0.9 2.6 0.00 0.06 0.06 94 1013.2
20260508094511 38 321 0.0 1.7 0.00 0.06 0.06 94 1013.0
20260508093013 38 314 0.0 1.7 0.00 0.06 0.06 94 1012.8
20260508091513 39 314 0.0 0.9 0.00 0.06 0.06 93 1012.9
20260508090009 39 310 0.0 1.7 0.00 0.06 0.06 93 1012.9
20260508084508 39 330 0.0 0.9 0.00 0.06 0.06 93 1012.7
20260508083007 39 330 0.0 1.7 0.02 0.06 0.06 93 1012.5
20260508081505 39 335 0.0 1.7 0.02 0.06 0.06 92 1012.5
20260508080004 40 13 0.0 2.6 0.02 0.06 0.06 92 1012.5
20260508074504 40 333 1.7 3.5 0.02 0.07 0.06 92 1012.5
20260508073001 40 324 0.9 4.3 0.00 0.05 0.04 92 1012.8
20260508071600 40 341 0.9 2.6 0.00 0.05 0.04 91 1012.7
20260508070059 40 349 0.0 1.7 0.00 0.05 0.04 90 1012.8
20260508064557 40 55 0.0 5.2 0.01 0.09 0.04 90 1012.7
20260508063058 41 4 1.7 6.1 0.02 0.09 0.04 89 1013.0
20260508061551 42 39 1.7 5.2 0.03 0.09 0.04 89 1012.7
20260508054628 43 18 0.0 0.9 0.03 0.09 0.03 85 1013.1
20260508053050 44 42 1.7 6.1 0.02 0.08 0.02 81 1013.1
20260508051538 46 270 1.7 8.7 0.00 0.06 0.00 72 1012.8
20260508050033 47 319 0.9 3.5 0.00 0.06 0.00 65 1011.8
20260508044532 47 37 0.0 0.9 0.00 0.06 0.00 63 1010.6
20260508043034 47 41 0.0 0.9 0.00 0.06 0.00 61 1010.5
20260508041526 48 41 0.0 0.9 0.00 0.06 0.00 60 1010.5
20260508040031 48 29 0.0 0.0 0.00 0.06 0.00 60 1011.0
20260508034533 48 29 0.0 0.0 0.00 0.06 0.06 59 1010.9
20260508033029 48 29 0.0 0.0 0.00 0.06 0.06 58 1010.7
20260508031521 48 29 0.0 0.9 0.00 0.06 0.06 58 1010.8
20260508030022 48 29 0.0 0.0 0.00 0.06 0.06 58 1011.0
20260508024524 48 28 0.0 0.0 0.00 0.06 0.06 58 1011.0
20260508023019 48 28 0.0 0.0 0.00 0.06 0.06 58 1011.0
20260508021520 48 28 0.0 0.0 0.00 0.06 0.06 58 1011.0
20260508020019 48 29 0.0 0.0 0.00 0.06 0.06 58 1010.8
20260508014519 48 53 0.0 0.9 0.00 0.06 0.06 58 1010.8
20260508013018 48 53 0.0 0.0 0.00 0.06 0.06 58 1010.7
20260508011518 49 53 0.0 0.0 0.00 0.06 0.06 57 1010.7
20260508010027 49 53 0.0 0.9 0.00 0.06 0.06 56 1010.6
20260508004524 50 52 0.0 0.9 0.00 0.11 0.06 56 1010.5
20260508003017 50 39 0.0 0.9 0.00 0.11 0.06 54 1010.4
20260508001516 51 36 0.0 0.9 0.00 0.11 0.06 53 1010.3
20260508000016 52 301 0.0 1.7 0.00 0.11 0.06 52 1010.1
20260507234516 53 10 0.0 1.7 0.00 0.11 0.06 50 1009.9
20260507233114 54 45 0.9 6.1 0.00 0.11 0.06 48 1009.9
20260507231513 55 43 0.9 4.3 0.00 0.11 0.06 47 1009.7
20260507230021 55 36 0.0 3.5 0.00 0.11 0.06 48 1009.7
20260507224516 55 27 0.9 3.5 0.00 0.11 0.06 48 1009.7
20260507223011 55 53 0.0 4.3 0.00 0.11 0.06 47 1009.5
20260507221511 55 41 1.7 6.1 0.00 0.11 0.06 47 1009.7
20260507220010 56 37 2.6 8.7 0.00 0.11 0.06 46 1009.7
20260507214515 57 316 0.9 6.1 0.00 0.11 0.06 46 1009.7
20260507213008 55 33 1.7 11.3 0.00 0.11 0.06 45 1009.6
20260507211508 55 30 3.5 10.4 0.00 0.11 0.06 44 1009.4
20260507210007 56 316 4.3 12.2 0.00 0.11 0.06 43 1009.6
20260507204505 58 347 2.6 10.4 0.00 0.11 0.06 41 1009.3
20260507203003 58 301 2.6 11.3 0.00 0.11 0.06 44 1009.4
20260507201502 58 322 3.5 7.8 0.00 0.11 0.06 43 1009.3
20260507194600 57 307 3.5 13.0 0.00 0.13 0.06 43 1009.4
20260507193058 56 14 3.5 8.7 0.00 0.13 0.06 46 1009.4
20260507191559 55 16 0.9 8.7 0.00 0.13 0.06 46 1009.9
20260507190057 56 240 2.6 7.0 0.00 0.13 0.06 46 1009.9
20260507184555 57 309 2.6 8.7 0.00 0.19 0.06 46 1010.0
20260507183053 56 8 1.7 9.6 0.00 0.19 0.06 48 1009.9
20260507181551 56 311 1.7 9.6 0.00 0.19 0.06 47 1010.2
20260507180057 55 338 2.6 8.7 0.00 0.19 0.06 48 1010.4
20260507174555 55 42 3.5 7.8 0.00 0.20 0.06 48 1010.7
20260507173047 54 52 1.7 6.1 0.00 0.20 0.06 51 1010.9
20260507171558 54 8 2.6 8.7 0.00 0.20 0.06 50 1011.1
20260507170042 54 359 5.2 11.3 0.00 0.20 0.06 49 1011.2
20260507164546 53 295 2.6 9.6 0.00 0.25 0.06 50 1011.4
20260507163043 52 63 2.6 12.2 0.00 0.25 0.06 51 1011.8
20260507161540 53 326 4.3 9.6 0.00 0.25 0.06 51 1011.8
20260507160044 52 24 1.7 7.0 0.00 0.25 0.06 55 1012.0
20260507154534 52 31 0.0 6.1 0.00 0.27 0.06 52 1012.1
20260507153032 52 196 0.9 7.0 0.00 0.27 0.06 53 1012.2
20260507151527 51 340 2.6 7.8 0.00 0.27 0.06 54 1012.4
20260507150029 50 312 1.7 6.1 0.00 0.27 0.06 60 1012.5
20260507144531 49 293 2.6 8.7 0.00 0.27 0.06 59 1012.5
20260507143021 49 20 2.6 9.6 0.00 0.27 0.06 61 1012.5
20260507141521 48 295 4.3 8.7 0.00 0.27 0.06 63 1012.4
20260507140014 48 39 4.3 7.8 0.00 0.27 0.06 68 1012.7
20260507134513 47 342 1.7 6.1 0.00 0.27 0.06 71 1012.5
20260507133012 46 14 4.3 7.8 0.00 0.27 0.06 73 1012.6
20260507131508 46 49 3.5 7.0 0.00 0.27 0.06 75 1012.4